Search for airport 
image banner adimage banner ad
image banner ad

TFFC - Saint Francois

Located in Saint Francois, Guadeloupe

ICAO - TFFC, IATA - SFC

Data provided by Airmate  

General information

Coordinates: N16°15'28" W61°15'45"
Elevation is 10 feet MSL.
Magnetic variation is -14.7° East
Rated:
View ratings: [VIEW]


View others Airports in (unassigned)

Operational data

Open for public use
Current time UTC:
Current local time:
Weather at : TFFR - Pointe A Pitre Le Raizet ( 28 km )
METAR: TFFR 292000Z AUTO 14013KT 100V170 9999 FEW036 31/21 Q1015 TEMPO 13015G25KT 4000 SHRA SCT020TCU
TAF: TAF TFFR 291700Z 2918/3018 13010KT 9999 SCT035 BKN050 PROB40 TEMPO 2918/2921 13015G25KT PROB30 TEMPO 2920/3012 4000 SHRA SCT020TCU PROB40 TEMPO 3002/3006 VRB02KT
View NOTAMs / SUP AIP / TFR affecting this airport [VIEW]
Communications frequencies: [VIEW]

Runways:

RWY identifierQFULength (ft)Width (ft)SurfaceLDA (ft)
1199°191659ASPH1916
29279°191659ASPH1916

Airport contact information

Address: Saint Francois Guadeloupe

Other aviation service providers

Aviation club (not for profit)

Aéroclub Saint-François Caraïbes

Aéroclub Saint-François Caraïbes

ULM Caraïbes

ULM Caraïbes
+330690642848

Satellite view of TFFC